Simultaneous Nadir Overpasses (SNOs) Predictions

Prediction of SNOs between METOP-C and LANDSAT-8 Satellite Orbit:

Table of predicted SNOs for the next 14.0 days since TLE Epoch: 6/24/2023
Index Date (METOP-C) Time (METOP-C) Lat,Lon (METOP-C) SZA (METOP-C ) Date (LANDSAT-8) Time (LANDSAT-8) Lat,Lon (LANDSAT-8) SZA (LANDSAT-8 ) Distance(km) Time Diff (sec)
1 06/25/2023 19:08:27 81.18, -66.50 59.96 06/25/2023 19:09:15 81.18, -66.46 59.99 0.73 48
2 06/25/2023 19:59:07 -81.20, 101.50 119.96 06/25/2023 19:58:41 -81.20, 101.49 119.97 0.27 26
3 06/28/2023 14:42:49 81.18, -0.11 60.05 06/28/2023 14:43:33 81.18, -0.06 60.07 0.88 44
4 06/28/2023 15:33:29 -81.20, 167.94 119.86 06/28/2023 15:32:59 -81.20, 167.91 119.88 0.65 30
5 07/01/2023 10:17:10 81.19, 66.58 60.23 07/01/2023 10:17:50 81.18, 66.47 60.23 2.04 40
6 07/01/2023 11:07:51 -81.20,-125.70 119.72 07/01/2023 11:07:16 -81.20,-125.54 119.72 2.66 35
7 07/04/2023 05:51:31 81.19, 133.20 60.46 07/04/2023 05:52:06 81.19, 133.12 60.47 1.53 35
8 07/04/2023 06:42:12 -81.19, -59.42 119.54 07/04/2023 06:41:32 -81.19, -59.24 119.53 3.00 40
9 07/07/2023 01:25:52 81.18,-160.63 60.68 07/07/2023 01:26:21 81.19,-160.48 60.72 2.78 29



Historial Predications of SNOs between METOP-C and LANDSAT-8
